Regional Weather Roundup
Issued by NWS Newport/Morehead, NC

Current Version | Previous Version | Graphics & Text | Print | Product List | Glossary Off
Versions: 1 2 3 4 5 6 7 8 9 10 11 12 13 14 15 16 17 18 19 20 21 22 23 24 25 26 27 28 29 30 31 32 33 34 35 36 37 38 39 40 41 42 43 44 45 46 47 48 49 50

000
ASUS42 KMHX 271412
RWRMHX
WEATHER ROUNDUP FOR EASTERN NORTH CAROLINA
NATIONAL WEATHER SERVICE NEWPORT/MOREHEAD CITY NC
1000 AM EDT MON APR 27 2015

NOTE: "FAIR" INDICATES FEW OR NO CLOUDS BELOW 12,000 FEET
WITH NO SIGNIFICANT WEATHER AND/OR OBSTRUCTIONS TO VISIBILITY

NCZ015>017-031-032-045>047-102-103-271500-
NORTH COAST

CITY           SKY/WX    TMP DP  RH WIND       PRES   REMARKS
EDENTON        SUNNY     58  46  63 NW6       29.78S
ELIZABETH CITY SUNNY     59  44  57 W10       29.77S
KITTY HAWK     SUNNY     60  43  53 W6        29.76R
MANTEO         SUNNY     59  42  54 NW10      29.77S

$$

NCZ045>047-081-094-103-104-271500-
CENTRAL COAST

CITY           SKY/WX    TMP DP  RH WIND       PRES   REMARKS
FRISCO         SUNNY     57  42  57 VRB5      29.77R
SWANQUARTER      N/A     61 N/A N/A NW7G13    29.77R

$$

NCZ095-097-098-100-101-271500-
SOUTHERN COAST

CITY           SKY/WX    TMP DP  RH WIND       PRES   REMARKS
BEAUFORT       SUNNY     61  41  47 N12       29.79R
CEDAR ISLAND     N/A     59 N/A N/A NW10G18   29.82S
JACKSONVILLE   SUNNY     60  45  57 N9        29.81R
PINEY ISLAND   SUNNY    N/A N/A N/A NW12      29.79R
WILMINGTON     SUNNY     60  46  59 N9        29.82R


$$

NCZ011>013-027>030-043-044-078>080-089-090>093-098-271500-
COASTAL PLAIN

CITY           SKY/WX    TMP DP  RH WIND       PRES   REMARKS
AHOSKIE        SUNNY     55  44  67 N3        29.79S
CLINTON        SUNNY     59  48  67 NW5       29.84R
ELIZABETHTOWN  SUNNY     57  46  66 N3        29.84R
GOLDSBORO      SUNNY     60  45  57 NW8       29.79R
GREENVILLE     SUNNY     57  45  62 NW7       29.83R
HAVELOCK       SUNNY     61  41  47 NW14      29.81R
KENANSVILLE    SUNNY     58  43  57 NW6       29.83R
KINSTON        SUNNY     61  45  55 NW7       29.82R
NEW BERN       SUNNY     61  44  53 NW8       29.82R
RICHLANDS      SUNNY     59  45  58 W6        29.82R
ROCKY MOUNT    SUNNY     59  47  64 NW9       29.81R
WASHINGTON     SUNNY     58  45  62 NW6       29.80R
WHITEVILLE     SUNNY     58  47  65 CALM      29.83R

$$

AMZ130-135-150-152-154-156-158-170-250-252-270-ANZ085-086-088-633-658-670-271500-
MARINE OBSERVATIONS

STATION/POSITION TIME  TEMP    WIND        PRES    WAVE   SWELL
                       AIR SEA DIR/SP/G            HT/PER HT/PER
                 (UTC) (F)     (DEG/KT/KT) (MB)    (FT/S) (FT/S)
CHESAPEAKE LIGHT 1400   55     310/ 10/ 11 1008.4
64 E VA BEACH    1350   54 55  270/ 10/ 12 1006.8    3/ 7   3/ 7
DUCK             1300   56 54  290/  6/  9 1006.6
2 E DUCK         1311      54                N/A     3/ 7
OREGON INLET     1300   57 54  310/  7/ 11 1007.5
13E OREGON INLT  NOT AVBL
HATTERAS CG      1300   57 62  340/ 15/ 18 1006.9
DIAMOND BUOY     1350   58 74  350/ 19/ 21 1007.3    6/ 9   5/ 9
CAPE LOOKOUT     1400   59     350/ 12/ 14 1008.4
BEAUFORT LAB     1300   56 61  350/ 12/ 14 1007.4
27 SE WRIGHTSVLE 1300   55 72   30/ 14/ 19   N/A
5 SE WRIGHTSVLE  1308   56 65   10/ 14/ 19 1008.6
225 S CAPE HAT   1350   67 71  310/  6/  8 1006.3    6/ 7   5/ 7
41 SE CHARLESTON 1350   61 71  360/ 10/ 14 1009.2    4/ 6   3/ 6

$$



USA.gov is the U.S. government's official web portal to all federal, state and local government web resources and services.